STARLINK-30276 (57652 NORAD) Tracking and Keplerian Element Data

This shows tracking and keplerian element data for the satellite.

Feedback or suggestion? Click here.




ElementValue
Catalog57652
NameSTARLINK-30276
Epoch Orbit279
Epoch Day238.91667824
Epoch Year2023
RAAN95.9206
Inclination43.0012
Eccentricity0.0002414
Argument of Perigee210.144
Mean Anonmoly216.4488
Mean Motion15.86123727
Decay Rate-0.00898528
L11 57652U 23122W 23238.91667824 -.00898528 00000+0 -38762-2 0 9995
L22 57652 43.0012 95.9206 0002414 210.1440 216.4488 15.86123727 2794



Live tracking and technical data element details for STARLINK-30276 (NORAD 57652). STARLINK-30276 can be tracked NOW for your location showing map with azimuth and elevation plus other details from your city location.







IsCatalogInMostPopularTable: catalog: 57652, numindb: 6
Update: records affected: 1



GetName: 57652 STARLINK-30276

Hit Count: updated at: Tue, 26 Sep 2023 12:58:04 GMT